TIME,DELAY(SENSOR),PRES,OXYGEN,RAWTEMP,T(OPTODE),TCPHASE,FLUOR,BETA(BETA700),BETA(BETA412),BETA(BETA440),CDOM,C(CSC),ED(ED412.40),ED(ED444.00),ED(ED489.70),ED(ED554.30),LU(LU411.80),LU(LU443.40),LU(LU489.60),LU(LU554.10),COMP,TILTX,TILTY,CHECK
1349493765,5807,841.5100097656250000,42.9152793884277340,659.5175781250000000,4.6438541412353520,54.5555686950683600,53,103,85,79,80,15218,2147757110,2147421842,2148007680,2147875693,2147641810,2147066203,2148256091,2147196845,61,5,13,36056
1349497361,5810,905.7999877929688000,46.1813697814941400,667.7365112304688000,4.3729419708251950,54.1800689697265600,53,101,88,78,82,15221,2147760045,2147422244,2148008566,2147875456,2147640749,2147060790,2148257417,2147191890,3481,4,13,31893
1349500961,5808,920.4699707031250000,45.9245414733886700,667.7313232421875000,4.3731122016906740,54.2129592895507800,53,99,90,80,82,15219,2147759680,2147421952,2148008256,2147874276,2147643401,2147065563,2148258706,2147197824,122,5,13,17754
1349504561,5809,943.8900146484375000,46.8186607360839840,670.2186889648438000,4.2909741401672360,54.1207885742187500,53,104,88,80,81,15182,2147754048,2147420022,2148011062,2147873590,2147647232,2147071241,2148262454,2147198390,3219,4,13,55576
1349508161,5808,947.7100219726562000,46.5121307373046900,669.6610717773438000,4.3093910217285160,54.1587905883789060,53,100,89,78,82,15180,2147761316,2147420406,2148013613,2147874249,2147646244,2147067474,2148260178,2147195684,2111,4,13,34831
1349511761,5807,950.2399902343750000,46.8330688476562500,671.0269775390625000,4.2642669677734375,54.1256790161132800,53,99,87,78,82,15175,2147758710,2147423277,2148006610,2147875949,2147643382,2147061604,2148260598,2147193965,339,5,13,1022
1349515361,5811,972.2500000000000000,47.6965484619140600,672.9276733398438000,4.2014369964599610,54.0311584472656250,52,99,88,79,80,15179,2147756973,2147423350,2148008393,2147874450,2147647012,2147064182,2148263908,2147194496,1034,5,13,18311
1349518961,5809,973.2000122070312000,48.0352783203125000,673.7415161132812000,4.1745238304138180,53.9913215637207000,53,101,89,78,81,15178,2147760941,2147426496,2148011154,2147873526,2147644598,2147057225,2148266340,2147197824,636,5,13,2360
1349522561,5809,969.2700195312500000,49.2389717102050800,675.3737792968750000,4.1205158233642580,53.8430213928222660,52,102,90,79,82,15178,2147757110,2147424557,2148009764,2147874194,2147644397,2147062555,2148262235,2147195209,3388,4,13,45569
1349526161,5810,975.8800048828125000,48.5589599609375000,673.9656982421875000,4.1671071052551270,53.9170417785644500,53,99,88,80,81,15178,2147757677,2147420672,2148012379,2147874221,2147644306,2147062500,2148263268,2147197083,541,4,13,64893
1349529761,5811,972.0700073242188000,49.4152793884277340,675.7548217773438000,4.1079077720642090,53.8242607116699200,52,100,89,79,82,15176,2147759213,2147423076,2148012169,2147876059,2147645860,2147063241,2148262418,2147195657,492,5,13,42663
1349533361,5808,993.0300292968750000,49.5700416564941400,675.5131225585938000,4.1159057617187500,53.8004798889160160,52,101,87,80,81,15177,2147758445,2147423533,2148009929,2147876233,2147643154,2147056192,2148267785,2147195739,57,5,13,53517
1349536961,5808,986.5800170898438000,49.3480606079101560,675.4653930664062000,4.1174850463867190,53.8317298889160160,52,102,88,78,82,15171,2147758564,2147424073,2148011474,2147875355,2147642907,2147065353,2148265453,2147201590,62,5,13,40900
1349540561,5811,976.3699951171875000,48.3932800292968750,675.0723876953125000,4.1304907798767090,53.9594497680664060,52,99,84,79,82,15176,2147760320,2147422290,2148010633,2147874688,2147642998,2147061568,2148259273,2147197714,1349,5,13,44809
1349544161,5809,992.6500244140625000,47.8854293823242200,673.3834838867188000,4.1863632202148440,54.0050697326660160,54,99,87,79,80,15173,2147761718,2147422144,2148007058,2147876278,2147642121,2147061366,2148263597,2147193920,422,5,13,33916
1349547761,5810,983.4500122070312000,48.3998603820800800,674.7442016601562000,4.1413521766662600,53.9493293762207000,52,100,88,80,81,15168,2147759744,2147424393,2148009481,2147875163,2147643940,2147060717,2148261668,2147194313,3327,5,13,55486
1349551361,5806,991.0999755859375000,47.5157890319824200,673.6422119140625000,4.1778068542480470,54.0609092712402340,52,100,87,78,80,15169,2147758144,2147422930,2148008886,2147874496,2147644973,2147062802,2148263963,2147195821,459,5,13,20646
1349554961,5810,991.7299804687500000,48.8401908874511700,674.4913940429688000,4.1497149467468260,53.8900718688964840,52,98,87,79,82,15171,2147757147,2147423872,2148010002,2147876608,2147647414,2147065682,2148259748,2147199232,3368,5,13,3051
1349558561,5809,997.0000000000000000,48.0129394531250000,673.4896240234375000,4.1828541755676270,53.9931907653808600,53,102,91,79,81,15169,2147760064,2147423195,2148009828,2147877147,2147641965,2147059273,2148259922,2147197842,395,5,13,8176
1349562161,5810,985.9099731445312000,47.3404693603515600,673.6182861328125000,4.1785960197448730,54.0865211486816400,51,100,87,79,82,15166,2147758546,2147422317,2148007424,2147875364,2147644480,2147055168,2148268425,2147192640,519,5,13,537
1349565761,5811,980.5599975585938000,48.8086013793945300,676.0208129882812000,4.0991039276123050,53.9081001281738300,53,98,90,79,82,15167,2147758528,2147421412,2148009078,2147875108,2147647515,2147061156,2148265042,2147192932,173,5,13,11059
1349569361,5808,984.1699829101562000,48.9675903320312500,675.7338867187500000,4.1085991859436035,53.8874702453613300,52,100,89,79,82,15160,2147760841,2147420928,2148008630,2147873188,2147645641,2147059008,2148265974,2147193792,3352,5,13,50182
1349572961,5811,985.8699951171875000,48.8027687072753900,675.1813964843750000,4.1268839836120605,53.9028892517089840,52,99,89,80,82,15168,2147758610,2147419081,2148009965,2147874349,2147644489,2147064402,2148261814,2147196873,3242,5,13,12213
1349576561,5810,989.0000000000000000,48.6795501708984400,675.6452026367188000,4.1115341186523440,53.9282188415527340,53,99,86,77,83,15110,2147760173,2147418816,2148010203,2147874633,2147645174,2147063049,2148261604,2147198372,3531,5,13,17666
1349580161,5807,985.7299804687500000,49.0249290466308600,676.1475219726562000,4.0949101448059080,53.8811683654785160,52,97,86,79,81,15167,2147757595,2147422976,2148006747,2147873380,2147644699,2147062765,2148265033,2147197851,3592,5,13,38020
1349583761,5808,984.3900146484375000,48.9104804992675800,676.4044189453125000,4.0864028930664060,53.9037818908691400,51,97,90,79,81,15167,2147760118,2147422884,2148009014,2147877074,2147647725,2147063716,2148257700,2147194413,145,5,13,28497
1349587361,5807,990.9699707031250000,48.9199409484863300,675.7128295898438000,4.1092967987060550,53.8900489807128900,52,99,84,78,82,15165,2147761188,2147421266,2148007936,2147876297,2147644461,2147061760,2148258980,2147195858,131,5,13,23883
1349590961,5806,990.2899780273438000,48.1238098144531250,674.9345703125000000,4.1350498199462890,53.9950904846191400,52,96,85,78,81,15161,2147758427,2147424374,2148007396,2147876068,2147646756,2147058194,2148261568,2147199451,408,5,13,7377
1349594561,5809,984.9199829101562000,47.9189605712890600,674.6275024414062000,4.1452121734619140,54.0171318054199200,52,101,88,79,81,15163,2147757851,2147426221,2148008667,2147875739,2147645357,2147061430,2148259666,2147197604,3046,4,13,17945
1349598161,5808,1000.5999755859375000,48.5722694396972660,674.8250122070312000,4.1386799812316895,53.9260101318359400,52,97,90,79,82,15165,2147759734,2147418916,2148006646,2147876763,2147643675,2147060562,2148262793,2147197869,2808,4,13,41549
1349601761,5806,1000.8499755859375000,47.9812583923339840,674.2416992187500000,4.1579761505126950,54.0031890869140600,51,98,87,78,82,15163,2147760868,2147421979,2148008658,2147873453,2147644644,2147060754,2148263350,2147194779,429,5,13,4191
1349605361,5805,992.2199707031250000,47.9648017883300800,674.7971191406250000,4.1396012306213380,54.0142097473144500,53,98,86,80,81,15163,2147758838,2147423122,2148005065,2147875035,2147645028,2147060480,2148268736,2147199634,2992,4,13,5787
1349608961,5803,984.0700073242188000,48.6416511535644500,675.5640869140625000,4.1142158508300780,53.9258003234863300,53,96,88,79,81,15163,2147755757,2147422656,2148007588,2147877202,2147645412,2147057910,2148261430,2147199369,587,5,13,21350
1349612561,5807,978.0300292968750000,48.8185005187988300,676.2542724609375000,4.0913720130920410,53.9139900207519500,51,99,87,80,83,15163,2147759908,2147422948,2148008502,2147872329,2147643035,2147058770,2148258249,2147199158,541,5,13,24793
1349616161,5808,995.3400268554688000,48.9408111572265600,675.5617065429688000,4.1142978668212890,53.8875808715820300,53,98,88,79,81,15160,2147755264,2147423424,2148006729,2147874066,2147643273,2147059730,2148260873,2147198948,667,5,13,20645
1349619761,5807,997.1099853515625000,48.3102493286132800,675.1599121093750000,4.1275978088378910,53.9688186645507800,53,100,90,79,81,15161,2147759707,2147423168,2148009453,2147875108,2147643968,2147066294,2148262518,2147196388,3005,4,13,8966
1349623361,5805,992.3099975585938000,48.3680381774902340,675.4667968750000000,4.1174387931823730,53.9651794433593750,52,103,86,80,82,15160,2147759177,2147424018,2148007497,2147875894,2147646354,2147064832,2148264045,2147195958,988,5,13,35542
1349626961,5810,1000.7199707031250000,48.8399009704589840,674.6555175781250000,4.1442852020263670,53.8919486999511700,53,100,88,79,82,15161,2147758555,2147420982,2148011126,2147876306,2147647268,2147061449,2148262582,2147190500,3113,4,13,22685
1349630561,5810,986.7600097656250000,48.9333190917968750,675.9099121093750000,4.1027722358703610,53.8941001892089840,52,98,88,78,82,15162,2147759350,2147422921,2148011291,2147872896,2147644105,2147058898,2148264539,2147196169,536,5,13,37118
1349634161,5809,992.4000244140625000,48.9925994873046900,675.6450805664062000,4.1115379333496090,53.8811111450195300,53,100,89,79,81,15155,2147757001,2147425398,2148009216,2147875584,2147645357,2147061504,2148265874,2147200859,3397,5,13,49647
1349637761,5809,1001.6599731445312000,48.8707504272460940,675.7363281250000000,4.1085209846496580,53.8971786499023440,53,98,88,79,81,15158,2147757924,2147422025,2148007168,2147876873,2147645705,2147062528,2148259382,2147196708,3159,4,13,438
1349638855,5811,1010.8099975585938000,48.9710884094238300,674.8131713867188000,4.1390690803527830,53.8718109130859400,52,99,87,80,83,15210,2147759277,2147421494,2148010797,2147873033,2147646445,2147068406,2148261019,2147198473,2816,5,13,8770
